Newark Heath, OH

3:05 AM EDT on September 22, 2017 (GMT -0400)
Newark Heath

Weather History for KVTA - January, 2013

Change the Weather History Date:

Saturday, January 12, 2013

  Actual Average Record
Temperature  
Mean Temperature 50 °F -  
Max Temperature 64 °F 32 °F 66 °F (2017)
Min Temperature 36 °F 16 °F 6 °F (2016)
Degree Days  
Heating Degree Days 15    
Moisture  
Dew Point 50 °F    
Average Humidity 90    
Maximum Humidity 100    
Minimum Humidity 73    
Precipitation  
Precipitation 0.01 in - - ()
Sea Level Pressure  
Sea Level Pressure 29.99 in    
Wind  
Wind Speed 2 mph (South)    
Max Wind Speed 10 mph    
Max Gust Speed -    
Visibility 6 miles    
Events Fog , Rain    
Averages and records for this station are not official NWS values.
T = Trace of Precipitation, MM = Missing Value Source: NWS Daily Summary

Daily Weather History Graph

Daily Weather History Graph

Search for Another Location

Airport or City:

Trip Planner

Search our weather history database for the weather conditions in past years. The results will help you decide how hot, cold, wet, or windy it might be!

Date:

Astronomy

Jan. 12, 2013 Rise Set
Actual Time 7:50 AM EST 5:26 PM EST
Civil Twilight 7:20 AM EST 5:56 PM EST
Nautical Twilight 6:47 AM EST 6:29 PM EST
Astronomical Twilight 6:14 AM EST 7:02 PM EST
Moon 8:08 AM EST (1/12) 6:53 PM EST (1/12)
Length of Visible Light 10h 35m
Length of Day
9h 35m
New Moon, 1% of the Moon is Illuminated
Jan 12
New Moon
Jan 18
First Quarter
Jan 26
Full
Feb 3
Last Quarter
Feb 10
New

Hourly Weather History & Observations

Time (EST) Temp. Windchill Dew Point Humidity Pressure Visibility Wind Dir Wind Speed Gust Speed Precip Events Conditions
12:43 AM 37.4 °F - 35.6 °F 93% 29.96 in 0.5 mi Calm Calm - N/A Fog Fog
12:50 AM 37.4 °F - 37.4 °F 100% 29.96 in 0.2 mi Calm Calm - N/A Fog Fog
12:54 AM 37.9 °F - 37.0 °F 97% 29.97 in 0.2 mi Calm Calm - N/A Fog Fog
1:54 AM 36.0 °F - 35.1 °F 97% 29.97 in 0.2 mi Calm Calm - N/A Fog Fog
2:54 AM 39.0 °F - 37.0 °F 93% 29.99 in 0.2 mi Calm Calm - N/A Fog Fog
3:54 AM 39.9 °F - 39.0 °F 97% 29.99 in 0.2 mi Calm Calm - N/A Fog Fog
4:39 AM 42.8 °F - 41.0 °F 93% 29.99 in 0.2 mi Calm Calm - N/A Fog Fog
4:54 AM 43.0 °F - 42.1 °F 97% 29.99 in 0.5 mi Calm Calm - N/A Fog Fog
5:03 AM 42.8 °F - 42.8 °F 100% 29.99 in 0.5 mi Calm Calm - N/A Fog Fog
5:20 AM 44.6 °F - 42.8 °F 93% 29.99 in 1.8 mi Calm Calm - N/A   Overcast
5:24 AM 44.6 °F - 42.8 °F 93% 29.99 in 3.0 mi Calm Calm - N/A   Overcast
5:38 AM 44.6 °F - 42.8 °F 93% 29.99 in 1.8 mi Calm Calm - N/A   Overcast
5:50 AM 42.8 °F - 41.0 °F 93% 29.99 in 3.0 mi Calm Calm - N/A   Overcast
5:54 AM 42.1 °F - 41.0 °F 96% 29.99 in 5.0 mi Calm Calm - N/A   Overcast
6:06 AM 42.8 °F - 39.2 °F 87% 29.99 in 5.0 mi Calm Calm - N/A   Overcast
6:37 AM 42.8 °F - 39.2 °F 87% 30.00 in 1.8 mi Calm Calm - N/A   Overcast
6:44 AM 41.0 °F - 39.2 °F 93% 30.00 in 3.0 mi Calm Calm - N/A   Overcast
6:54 AM 42.1 °F - 39.9 °F 92% 30.02 in 1.5 mi Calm Calm - N/A   Overcast
7:04 AM 42.8 °F - 39.2 °F 87% 30.01 in 0.8 mi Calm Calm - N/A   Overcast
7:18 AM 42.8 °F - 41.0 °F 93% 30.02 in 1.8 mi Calm Calm - N/A   Overcast
7:35 AM 44.6 °F - 42.8 °F 93% 30.02 in 0.5 mi Calm Calm - N/A Fog Fog
7:54 AM 45.0 °F 43.5 °F 43.0 °F 93% 30.04 in 0.5 mi South 3.5 mph - N/A Fog Fog
8:01 AM 48.2 °F - 46.4 °F 93% 30.03 in 0.2 mi South 4.6 mph - N/A Fog Fog
8:25 AM 51.8 °F - 48.2 °F 88% 30.04 in 0.2 mi South 5.8 mph - N/A Fog Fog
8:51 AM 51.8 °F - 51.8 °F 100% 30.05 in 1.0 mi South 5.8 mph - N/A   Overcast
9:09 AM 53.6 °F - 51.8 °F 94% 30.05 in 2.0 mi South 5.8 mph - N/A   Overcast
9:18 AM 53.6 °F - 51.8 °F 94% 30.05 in 4.0 mi South 5.8 mph - N/A   Overcast
9:46 AM 53.6 °F - 53.6 °F 100% 30.05 in 8.0 mi South 5.8 mph - N/A   Scattered Clouds
9:54 AM 55.0 °F - 53.1 °F 93% 30.06 in 9.0 mi SSW 5.8 mph - N/A   Scattered Clouds
10:09 AM 55.4 °F - 53.6 °F 94% 30.05 in 10.0 mi SSW 5.8 mph - N/A   Mostly Cloudy
10:54 AM 57.9 °F - 55.0 °F 90% 30.06 in 10.0 mi South 3.5 mph - N/A   Mostly Cloudy
11:25 AM 60.8 °F - 55.4 °F 82% 30.03 in 10.0 mi South 6.9 mph - N/A   Scattered Clouds
11:54 AM 61.0 °F - 55.9 °F 83% 30.03 in 10.0 mi SSW 5.8 mph - N/A   Partly Cloudy
12:54 PM 63.0 °F - 55.9 °F 78% 30.01 in 10.0 mi SSW 6.9 mph - N/A   Scattered Clouds
1:54 PM 63.0 °F - 57.0 °F 81% 30.01 in 10.0 mi SSW 4.6 mph - N/A   Overcast
2:28 PM 64.4 °F - 55.4 °F 73% 30.01 in 10.0 mi SW 5.8 mph - N/A   Overcast
2:54 PM 64.0 °F - 55.0 °F 73% 30.01 in 10.0 mi SSW 5.8 mph - N/A   Partly Cloudy
3:54 PM 64.0 °F - 55.9 °F 75% 30.01 in 10.0 mi South 4.6 mph - N/A   Partly Cloudy
4:18 PM 62.6 °F - 57.2 °F 82% 30.00 in 10.0 mi SSE 6.9 mph - N/A   Mostly Cloudy
4:50 PM 62.6 °F - 57.2 °F 82% 30.00 in 10.0 mi South 3.5 mph - N/A   Overcast
4:54 PM 62.1 °F - 57.0 °F 84% 30.00 in 10.0 mi South 3.5 mph - N/A   Overcast
5:46 PM 62.6 °F - 57.2 °F 82% 29.98 in 10.0 mi Calm Calm - N/A   Overcast
5:54 PM 59.0 °F - 55.9 °F 90% 29.99 in 10.0 mi Calm Calm - N/A   Overcast
6:07 PM 60.8 °F - 57.2 °F 88% 29.97 in 10.0 mi SSE 3.5 mph - N/A   Overcast
6:54 PM 62.1 °F - 59.0 °F 90% 29.96 in 9.0 mi SSE 10.4 mph - 0.00 in   Scattered Clouds
7:23 PM 60.8 °F - 59.0 °F 94% 29.95 in 9.0 mi SSE 5.8 mph - N/A   Overcast
7:47 PM 60.8 °F - 59.0 °F 94% 29.95 in 10.0 mi South 5.8 mph - 0.00 in   Overcast
7:54 PM 62.1 °F - 59.0 °F 90% 29.95 in 10.0 mi South 6.9 mph - 0.00 in   Overcast
8:07 PM 60.8 °F - 59.0 °F 94% 29.95 in 5.0 mi SSE 6.9 mph - N/A   Overcast
8:54 PM 61.0 °F - 59.0 °F 93% 29.92 in 6.0 mi SE 6.9 mph - 0.00 in   Overcast
9:06 PM 60.8 °F - 59.0 °F 94% 29.93 in 8.0 mi SSE 5.8 mph - N/A   Overcast
9:39 PM 62.6 °F - 59.0 °F 88% 29.91 in 9.0 mi SSE 8.1 mph - 0.00 in Rain Light Rain
9:54 PM 62.1 °F - 59.0 °F 90% 29.89 in 8.0 mi SE 9.2 mph - 0.01 in Rain Light Rain
10:03 PM 62.6 °F - 59.0 °F 88% 29.89 in 10.0 mi SSE 8.1 mph - 0.00 in   Overcast
10:54 PM 62.1 °F - 59.0 °F 90% 29.88 in 10.0 mi SSE 5.8 mph - 0.00 in   Overcast
11:54 PM 61.0 °F - 59.0 °F 93% 29.87 in 10.0 mi SSE 8.1 mph - N/A   Overcast